sat.trackr.live / text

‹ back to catalog

ONEWEB-0146

NORAD 47292 · 2020-100AL

PAYLOAD ACTIVE UNKNOWN

§ Identity

Operator
Country
UK
Launch date
2020-12-18
Launch site
VOSTO
Launch vehicle
Mass (kg)
RCS (m²)

Purposes: comms

External: N2YO · Heavens-Above · Gunter

§ Orbital elements

Epoch: 2026-09-09T17:28:55.848288Z

Period
109.72 min
Inclination
87.8996°
Eccentricity
0.0002229
Mean motion
13.12442875 rev/d
Perigee alt
1,212.0 km
Apogee alt
1,215.4 km
Semi-major
7,591.9 km
B*
-7.0250e-4
RAAN
333.8796°
Arg perigee
100.9612°
Mean anomaly
259.1767°
Rev number
27,576

§ Raw data

ONEWEB-01461 47292U 20100AL  26252.72842417 -.00000240  00000+0 -70250-3 0  99932 47292  87.8996 333.8796 0002229 100.9612 259.1767 13.12442875275767

JSON: /api/v1/satellites/47292 · /tle

For live sub-satellite position, see the globe view (requires WebGL).

§ Visibility from observer

Set your observer location to see the next 7 days of passes ≥ 10°. The values pass through the URL so the page stays shareable.

No JS? Fill the form by hand. The geolocation button needs JavaScript.